Welcome to the New NWS' Forecast!
Most changes are behind the scenes, but click here for differences you might notice.

Regional Weather Roundup (RWR)

Issued by Grand Forks, ND (FGF)

                            
026 
ASUS43 KFGF 201231
RWRFGF
PRAIRIE TO PINES  WEATHER ROUNDUP
NATIONAL WEATHER SERVICE EASTERN NORTH DAKOTA/GRAND FORKS ND
700 AM CDT MON AUG 20 2018

 **SATELLITE DATA USED TO AUGMENT SKY COVER AT AUTOMATED STATIONS**
 *****  WEATHER ACROSS EASTERN NORTH DAKOTA  *****
  
CITY           SKY/WX    TMP DP  RH WIND       PRES   REMARKS
GRAND FORKS    MOCLDY    52  51  97 N10       30.14R                  
6HR MIN TEMP:  51; 6HR MAX TEMP:  54;                                

GRAND FRKS AFB FAIR      52  51  96 N8        30.15R                  
GRAND FRKS NWS   N/A     52  50  92 N9        30.12R                  
DEVILS LAKE    FAIR      48  46  93 N9        30.21R                  
6HR MIN TEMP:  48; 6HR MAX TEMP:  53;                                

FARGO          FAIR      53  51  93 N9        30.09R                  
WAHPETON ARPT    N/A     55  52  88 N12G21    30.06R                  
$$

 ***** WEATHER ACROSS CENTRAL AND WESTERN NORTH DAKOTA  *****
  
CITY           SKY/WX    TMP DP  RH WIND       PRES   REMARKS
BISMARCK       FAIR      49  45  86 W6        30.22R                  
6HR MIN TEMP:  49; 6HR MAX TEMP:  59;                                

MINOT          FAIR      47  39  74 W3        30.23R                  
6HR MIN TEMP:  44; 6HR MAX TEMP:  53;                                

JAMESTOWN      FAIR      50  49  96 N7        30.16R                  
6HR MIN TEMP:  50; 6HR MAX TEMP:  58;                                

MINOT AFB      FAIR      41  37  84 NW6       30.22R                  
GARRISON         N/A     44  41  89 N8        30.23R                  
WILLISTON      FAIR      43  36  76 CALM      30.26R                  
6HR MIN TEMP:  43; 6HR MAX TEMP:  52;                                

DICKINSON      FAIR      44  37  76 NW6       30.23R                  
6HR MIN TEMP:  41; 6HR MAX TEMP:  51;                                

HETTINGER      FAIR      43  38  82 NW3       30.24R                  
6HR MIN TEMP:  40; 6HR MAX TEMP:  55;                                

$$

 *****  OTHER AIRPORT OBSERVATIONS IN OUR AREA  *****
  
CITY           SKY/WX    TMP DP  RH WIND       PRES   REMARKS
WALHALLA       FAIR      50  50 100 NW6       30.20R                  
GRAFTON AIRPOR FAIR      52  50  93 NW8       30.19R                  
VALLEY CITY AR FAIR      54  54 100 N9        30.16R                  
CANDO          FAIR      48  48 100 N6        30.24R                  
CAVALIER APRT  FAIR      54  50  87 NW8       30.19R                  
GWINNER          N/A     54  52  94 N12       30.10S                  
SHEYENNE NWR     N/A     56  52  85 N7        29.95                   
ROLLA          FAIR      46  45  93 NW8       30.24R                  
 ***** THE ABOVE OBSERVATIONS ARE NON NWS ARE NOT QUALITY
       CONTROLLED AND MAY MIS-REPORT RAIN FOR SNOW...
$$

  *****  WEATHER ACROSS NORTHERN MINNESOTA  *****     
  
CITY           SKY/WX    TMP DP  RH WIND       PRES   REMARKS
FLAG ISLAND    FAIR      63  55  77 NW5       30.12R                  
WARROAD        FAIR      52  46  82 NW8       30.14R                  
ROSEAU         FAIR      52  46  82 NW6       30.14S HAZE             
HALLOCK        FAIR      48  46  93 NW6       30.17R                  
THF RVR FALLS  FAIR      54  51  90 N9        30.13R                  
6HR MIN TEMP:  54; 6HR MAX TEMP:  60;                                

BAUDETTE       FAIR      57  54  89 N5        30.10R                  
6HR MIN TEMP:  52; 6HR MAX TEMP:  61;                                

WASKISH        FAIR      54  52  94 NE6       30.10R                  
CROOKSTON      FAIR      54  52  94 N8        30.13S                  
STEPHEN NDAWN    N/A     50  48  93 N5          N/A                   
GREENBUSH NDAW   N/A     46  45  93 N3          N/A                   
$$
  *****  WEATHER ACROSS CENTRAL AND WEST MINNESOTA  *****     
  
CITY           SKY/WX    TMP DP  RH WIND       PRES   REMARKS
FOSSTON        FAIR      50  48  93 N3        30.11R                  
BEMIDJI        FAIR      59  56  89 CALM      30.09R                  
6HR MIN TEMP:  54; 6HR MAX TEMP:  60;                                

PARK RAPIDS    CLOUDY    62  55  77 N12       30.05R                  
6HR MIN TEMP:  62; 6HR MAX TEMP:  63;                                

ELBOW LAKE     CLOUDY    61  58  88 NE7       30.05R                  
6HR MIN TEMP:  61; 6HR MAX TEMP:  63;                                

WADENA         MOCLDY    59  57  94 N5        30.06R                  
DETROIT LAKES  FAIR      61  55  82 N6        30.08R                  
MOORHEAD       FAIR      54  52  94 N8        30.10R                  
FERGUS FALLS   MOCLDY    61  57  88 NE5       30.06R                  
MORRIS MN      CLOUDY    63  63 100 N7        30.01S FOG              
STAPLES        CLOUDY    59  57  94 CALM      30.04R FOG              
$$
  *****  WEATHER ELSEWHERE ACROSS MINNESOTA  *****     
  
CITY           SKY/WX    TMP DP  RH WIND       PRES   REMARKS
DULUTH         MOCLDY    66  62  87 NE6       30.00S FOG              
6HR MIN TEMP:  65; 6HR MAX TEMP:  69;                                

INTRNTL FALLS  MOCLDY    59  56  89 N5        30.09R                  
6HR MIN TEMP:  53; 6HR MAX TEMP:  60;                                

ELY            CLOUDY    63  57  82 CALM      30.05R                  
CLOQUET        FAIR      64  61  88 N6        30.01R FOG              
WHEATON        FAIR      59  54  82 NW5       30.07R                  
BRAINERD       CLOUDY    63  59  87 NE6       30.03R FOG              
6HR MIN TEMP:  63; 6HR MAX TEMP:  67; 6HR PCP:  0.31;                

HIBBING        CLOUDY    61  56  83 N6        30.04R HAZE             
6HR MIN TEMP:  61; 6HR MAX TEMP:  64; 6HR PCP: TRACE;                

ALEXANDRIA     CLOUDY    65  60  84 NE10      30.04R HAZE             
6HR MIN TEMP:  65; 6HR MAX TEMP:  67; 6HR PCP:  0.16;                

SAINT CLOUD    FAIR      63  61  93 N6        29.97R                  
6HR MIN TEMP:  63; 6HR MAX TEMP:  67; 6HR PCP:  0.69;                

MINNEAPOLIS    RAIN      72  67  84 N8        29.93R                  
6HR MIN TEMP:  72; 6HR MAX TEMP:  75;                                

$$

  *****  WEATHER ACROSS SOUTH DAKOTA  *****
  
CITY           SKY/WX    TMP DP  RH WIND       PRES   REMARKS
SIOUX FALLS    CLOUDY    66  64  93 N12G21    29.93R                  
6HR MIN TEMP:  66; 6HR MAX TEMP:  67; 6HR PCP:  0.17;                

BROOKINGS      CLOUDY    63  61  94 N13       29.98S FOG              
WATERTOWN      CLOUDY    59  56  89 NE14      30.02R                  
6HR MIN TEMP:  59; 6HR MAX TEMP:  61; 6HR PCP:  0.03;                

HURON          CLOUDY    60  54  80 N16       30.04R                  
6HR MIN TEMP:  58; 6HR MAX TEMP:  60; 6HR PCP:  0.02;                

SISSETON         N/A     58  55  90 N12       30.05R                  
ABERDEEN       MOCLDY    56  51  84 N13       30.10R                  
6HR MIN TEMP:  56; 6HR MAX TEMP:  61;                                

MITCHELL       CLOUDY    61  59  93 N15       30.00R                  
PIERRE         FAIR      53  50  89 N12       30.13R                  
6HR MIN TEMP:  53; 6HR MAX TEMP:  57;                                

MOBRIDGE       FAIR      51  48  89 N7        30.16R                  
RAPID CITY     FAIR      45  38  76 NW8       30.24R                  
6HR MIN TEMP:  43; 6HR MAX TEMP:  49;                                

$$

  *****  SOME WEATHER IN NEARBY STATES *****
  
CITY           SKY/WX    TMP DP  RH WIND       PRES   REMARKS
GLASGOW MT     FAIR      55  37  50 CALM      30.24R                  
6HR MIN TEMP:  53; 6HR MAX TEMP:  61;                                

GREAT FALLS MT CLOUDY    54  38  54 NE10      30.19S                  
6HR MIN TEMP:  52; 6HR MAX TEMP:  60;                                

CHEYENNE WY    FOG       47  47 100 W7        30.31S VSB 1/4          
6HR MIN TEMP:  46; 6HR MAX TEMP:  51;                                

SCOTTSBLUFF NE FAIR      41  41 100 NW7       30.27R FOG              
6HR MIN TEMP:  42; 6HR MAX TEMP:  51;                                

OMAHA NE       HVY RAIN  66  64  93 N23G37    29.70R VSB 3/4          
6HR MIN TEMP:  66; 6HR MAX TEMP:  68; 6HR PCP:  2.33;                

DES MOINES IA  LGT RAIN  70  69  97 E12G25    29.63F                  
6HR MIN TEMP:  69; 6HR MAX TEMP:  71; 6HR PCP:  0.66;                

DAVENPORT IA   RAIN      69  67  93 SE12      29.81F FOG              
6HR MIN TEMP:  70; 6HR MAX TEMP:  72; 6HR PCP:  0.12;                

CHICAGO IL     MOCLDY    73  63  70 E10       29.91S                  
6HR MIN TEMP:  71; 6HR MAX TEMP:  75;                                

EAU CLAIRE WI  MOCLDY    66  62  87 NE5       29.94R                  
6HR MIN TEMP:  65; 6HR MAX TEMP:  69;                                

LA CROSSE WI   FAIR      72  67  84 N5        29.88F                  
6HR MIN TEMP:  71; 6HR MAX TEMP:  74;                                

$$

  *****  SOME NATIONAL WEATHER *****
  
CITY           SKY/WX    TMP DP  RH WIND       PRES   REMARKS
LA GUARDIA NY  PTSUNNY   70  61  73 NE12      30.13R                  
6HR MIN TEMP:  68; 6HR MAX TEMP:  70;                                

RALEIGH NC     PTSUNNY   70  69  97 N3        30.03F                  
6HR MIN TEMP:  68; 6HR MAX TEMP:  70; 6HR PCP:  0.08;                

ATLANTA GA     CLOUDY    74  70  87 W7        30.07R                  
6HR MIN TEMP:  73; 6HR MAX TEMP:  74;                                

NEW ORLEANS LA MOCLDY    80  79  96 S5        30.02R                  
6HR MIN TEMP:  80; 6HR MAX TEMP:  81;                                

OKLAHOMA CITY  FAIR      65  59  81 NW8       29.97R                  
6HR MIN TEMP:  65; 6HR MAX TEMP:  73;                                

ALBUQUERQUE NM FAIR      67  54  63 E22       30.23R                  
6HR MIN TEMP:  67; 6HR MAX TEMP:  72;                                

SALT LAKE CITY FAIR      71  40  32 S14       30.00S                  
6HR MIN TEMP:  67; 6HR M